Weather History for Casper, WY

Change the Weather History Date:

Wednesday, October 16, 2013

  Actual Average Record
Temperature  
Mean Temperature 40 °F 45 °F  
Max Temperature 51 °F 59 °F 83 °F (1991)
Min Temperature 29 °F 31 °F 18 °F (1992)
Degree Days  
Heating Degree Days 25 20  
Month to date heating degree days 372 279  
Since 1 July heating degree days 539 564  
Cooling Degree Days 0 0  
Month to date cooling degree days 0 0  
Year to date cooling degree days 618 422  
Moisture  
Dew Point 26 °F    
Average Humidity 63    
Maximum Humidity 92    
Minimum Humidity 33    
Precipitation  
Precipitation 0.00 in 0.04 in 2.06 in (1998)
Month to date precipitation 2.89 0.61  
Year to date precipitation 13.56 10.77  
Snow  
Snow 0.00 in 0.20 in - ()
Month to date snowfall 16.2 3.3  
Since 1 July snowfall 21.0 5.1  
Since 1 September snowfall 21.0 5.1  
Snow Depth 0.00 in    
Sea Level Pressure  
Sea Level Pressure 30.11 in    
Wind  
Wind Speed 13 mph (SW)    
Max Wind Speed 25 mph    
Max Gust Speed 31 mph    
Visibility 10 miles    
Events      
T = Trace of Precipitation, MM = Missing Value Source: NWS Daily Summary

Daily Weather History Graph

Daily Weather History Graph

Search for Another Location

Airport:

Trip Planner

Search our weather history database for the weather conditions in past years. The results will help you decide how hot, cold, wet, or windy it might be!

Date:

Astronomy

Oct. 16, 2013 Rise Set
Actual Time 7:20 AM MDT 6:21 PM MDT
Civil Twilight 6:52 AM MDT 6:49 PM MDT
Nautical Twilight 6:19 AM MDT 7:22 PM MDT
Astronomical Twilight 5:46 AM MDT 7:55 PM MDT
Moon 5:04 PM MDT (10/16) 4:48 AM MDT (10/16)
Length of Visible Light 11h 57m
Length of Day
11h 00m
Waxing Gibbous, 94% of the Moon is Illuminated
Oct 16
Waxing Gibbous
Oct 18
Full
Oct 26
Last Quarter
Nov 3
New
Nov 9
First Quarter

Hourly Weather History & Observations

Time (MDT) Temp. Windchill Dew Point Humidity Pressure Visibility Wind Dir Wind Speed Gust Speed Precip Events Conditions
12:53 AM 28.9 °F 19.8 °F 26.1 °F 89% 30.22 in 10.0 mi WSW 10.4 mph - N/A   Clear
1:53 AM 30.0 °F 21.1 °F 25.0 °F 82% 30.20 in 10.0 mi SW 10.4 mph - N/A   Clear
2:53 AM 30.9 °F 20.7 °F 24.1 °F 76% 30.17 in 10.0 mi SSW 13.8 mph - N/A   Clear
3:53 AM 30.0 °F 21.1 °F 24.1 °F 79% 30.17 in 10.0 mi SW 10.4 mph - N/A   Clear
4:53 AM 30.0 °F 20.5 °F 24.1 °F 79% 30.16 in 10.0 mi SW 11.5 mph - N/A   Clear
5:53 AM 30.0 °F 19.5 °F 24.1 °F 79% 30.14 in 10.0 mi SSW 13.8 mph - N/A   Clear
6:53 AM 30.0 °F 20.0 °F 24.1 °F 79% 30.16 in 10.0 mi SSW 12.7 mph - N/A   Clear
7:53 AM 30.9 °F 21.2 °F 23.0 °F 72% 30.17 in 10.0 mi SW 12.7 mph - N/A   Clear
8:53 AM 34.0 °F 23.8 °F 24.1 °F 67% 30.17 in 10.0 mi SSW 16.1 mph 24.2 mph N/A   Clear
9:53 AM 37.0 °F 26.7 °F 25.0 °F 62% 30.15 in 10.0 mi SSW 19.6 mph 26.5 mph N/A   Clear
10:53 AM 39.0 °F 28.8 °F 27.0 °F 62% 30.13 in 10.0 mi SSW 21.9 mph - N/A   Clear
11:53 AM 43.0 °F 33.8 °F 27.0 °F 53% 30.10 in 10.0 mi SSW 23.0 mph 28.8 mph N/A   Clear
12:53 PM 44.1 °F 35.4 °F 28.0 °F 53% 30.08 in 10.0 mi SSW 21.9 mph 31.1 mph N/A   Clear
1:53 PM 46.9 °F - 30.0 °F 52% 30.04 in 10.0 mi SSW 19.6 mph 28.8 mph N/A   Clear
2:53 PM 48.9 °F - 28.0 °F 44% 30.01 in 10.0 mi SW 19.6 mph 27.6 mph N/A   Clear
3:53 PM 50.0 °F - 23.0 °F 35% 30.01 in 10.0 mi WSW 17.3 mph 23.0 mph N/A   Clear
4:53 PM 50.0 °F - 27.0 °F 41% 30.00 in 10.0 mi SW 13.8 mph - N/A   Clear
5:53 PM 46.0 °F 41.0 °F 28.9 °F 51% 30.01 in 10.0 mi SW 10.4 mph - N/A   Clear
6:53 PM 39.0 °F 31.8 °F 28.9 °F 67% 30.06 in 10.0 mi SW 11.5 mph - N/A   Clear
7:53 PM 37.0 °F - 28.9 °F 73% 30.08 in 10.0 mi North - - N/A   Clear
8:53 PM 35.1 °F 28.6 °F 28.9 °F 78% 30.09 in 10.0 mi NW 8.1 mph - N/A   Clear
9:53 PM 34.0 °F 31.0 °F 27.0 °F 75% 30.10 in 10.0 mi WNW 3.5 mph - N/A   Clear
10:53 PM 35.1 °F - 26.1 °F 70% 30.11 in 10.0 mi Calm Calm - N/A   Mostly Cloudy
11:53 PM 35.1 °F 31.0 °F 28.9 °F 78% 30.10 in 10.0 mi NE 4.6 mph - N/A   Scattered Clouds